Time,TemperatureF,DewpointF,PressureIn,WindDirection,WindDirectionDegrees,WindSpeedMPH,WindSpeedGustMPH,Humidity,HourlyPrecipIn,Conditions,Clouds,dailyrainin,SolarRadiationWatts/m^2,SoftwareType,DateUTC
2013-04-09 00:02:00,32.0,13.0,-100.00,SW,220,5.0,12.0,45,0.00,,,0.00,1.000000,,2013-04-09 06:02:00,
2013-04-09 00:12:00,32.0,13.0,-100.00,SW,220,5.0,12.0,45,0.00,,,0.00,1.000000,,2013-04-09 06:12:00,
2013-04-09 00:32:00,30.0,12.0,-100.00,SW,225,6.0,13.0,47,0.00,,,0.00,1.000000,,2013-04-09 06:32:00,
2013-04-09 00:42:00,30.0,12.0,-100.00,SW,225,6.0,13.0,47,0.00,,,0.00,1.000000,,2013-04-09 06:42:00,
2013-04-09 00:52:00,30.0,12.0,-100.00,SW,225,6.0,13.0,47,0.00,,,0.00,1.000000,,2013-04-09 06:52:00,
2013-04-09 01:02:00,30.0,12.0,-100.00,SW,225,6.0,13.0,47,0.00,,,0.00,1.000000,,2013-04-09 07:02:00,
2013-04-09 01:12:00,30.0,12.0,-100.00,SW,225,6.0,13.0,47,0.00,,,0.00,1.000000,,2013-04-09 07:12:00,
2013-04-09 01:32:00,28.0,11.0,-100.00,WSW,258,7.0,14.0,48,0.00,,,-99.99,1.000000,,2013-04-09 07:32:00,
2013-04-09 01:42:00,28.0,11.0,-100.00,WSW,258,7.0,14.0,48,0.00,,,-99.99,1.000000,,2013-04-09 07:42:00,
2013-04-09 01:52:00,28.0,11.0,-100.00,WSW,258,7.0,14.0,48,0.00,,,-99.99,1.000000,,2013-04-09 07:52:00,
2013-04-09 02:02:00,28.0,11.0,-100.00,WSW,258,7.0,14.0,48,0.00,,,-99.99,1.000000,,2013-04-09 08:02:00,
2013-04-09 02:12:00,28.0,11.0,-100.00,WSW,258,7.0,14.0,48,0.00,,,-99.99,1.000000,,2013-04-09 08:12:00,
2013-04-09 02:42:00,27.0,11.0,-100.00,SW,219,7.0,15.0,50,0.00,,,0.00,1.000000,,2013-04-09 08:42:00,
2013-04-09 02:52:00,27.0,11.0,-100.00,SW,219,7.0,15.0,50,0.00,,,0.00,1.000000,,2013-04-09 08:52:00,
2013-04-09 03:02:00,27.0,11.0,-100.00,SW,219,7.0,15.0,50,0.00,,,0.00,1.000000,,2013-04-09 09:02:00,
2013-04-09 03:12:00,27.0,11.0,-100.00,SW,219,7.0,15.0,50,0.00,,,0.00,1.000000,,2013-04-09 09:12:00,
2013-04-09 03:44:00,25.0,10.0,-100.00,WSW,256,4.0,11.0,52,0.00,,,0.00,1.000000,,2013-04-09 09:44:00,
2013-04-09 03:52:00,25.0,10.0,-100.00,WSW,256,4.0,11.0,52,0.00,,,0.00,1.000000,,2013-04-09 09:52:00,
2013-04-09 04:03:00,25.0,10.0,-100.00,WSW,256,4.0,11.0,52,0.00,,,0.00,1.000000,,2013-04-09 10:03:00,
2013-04-09 04:12:00,25.0,10.0,-100.00,WSW,256,4.0,11.0,52,0.00,,,0.00,1.000000,,2013-04-09 10:12:00,
2013-04-09 04:33:00,24.0,10.0,-100.00,SW,233,4.0,10.0,54,0.00,,,0.00,1.000000,,2013-04-09 10:33:00,
2013-04-09 04:43:00,24.0,10.0,-100.00,SW,233,4.0,10.0,54,0.00,,,0.00,1.000000,,2013-04-09 10:43:00,
2013-04-09 04:53:00,24.0,10.0,-100.00,SW,233,4.0,10.0,54,0.00,,,0.00,1.000000,,2013-04-09 10:53:00,
2013-04-09 05:02:00,24.0,10.0,-100.00,SW,233,4.0,10.0,54,0.00,,,0.00,1.000000,,2013-04-09 11:02:00,
2013-04-09 05:12:00,24.0,10.0,-100.00,SW,233,4.0,10.0,54,0.00,,,0.00,1.000000,,2013-04-09 11:12:00,
2013-04-09 05:32:00,23.0,10.0,-100.00,South,176,3.0,10.0,58,0.00,,,0.00,1.000000,,2013-04-09 11:32:00,
2013-04-09 05:42:00,23.0,10.0,-100.00,South,176,3.0,10.0,58,0.00,,,0.00,1.000000,,2013-04-09 11:42:00,
2013-04-09 05:52:00,23.0,10.0,-100.00,South,176,3.0,10.0,58,0.00,,,0.00,1.000000,,2013-04-09 11:52:00,
2013-04-09 06:02:00,23.0,10.0,-100.00,South,176,3.0,10.0,58,0.00,,,0.00,1.000000,,2013-04-09 12:02:00,
2013-04-09 06:12:00,23.0,10.0,-100.00,South,176,3.0,10.0,58,0.00,,,0.00,1.000000,,2013-04-09 12:12:00,
2013-04-09 06:33:00,22.0,10.0,-100.00,South,171,2.0,5.0,58,0.00,,,0.00,1.000000,,2013-04-09 12:33:00,
2013-04-09 06:43:00,22.0,10.0,-100.00,South,171,2.0,5.0,58,0.00,,,0.00,1.000000,,2013-04-09 12:43:00,
2013-04-09 06:53:00,22.0,10.0,-100.00,South,171,2.0,5.0,58,0.00,,,0.00,1.000000,,2013-04-09 12:53:00,
2013-04-09 07:02:00,22.0,10.0,-100.00,South,171,2.0,5.0,58,0.00,,,0.00,1.000000,,2013-04-09 13:02:00,
2013-04-09 07:12:00,22.0,10.0,-100.00,South,171,2.0,5.0,58,0.00,,,0.00,1.000000,,2013-04-09 13:12:00,
2013-04-09 07:33:00,20.0,10.0,-100.00,ENE,76,1.0,8.0,65,0.00,,,0.00,1.000000,,2013-04-09 13:33:00,
2013-04-09 07:43:00,20.0,10.0,-100.00,ENE,76,1.0,8.0,65,0.00,,,0.00,1.000000,,2013-04-09 13:43:00,
2013-04-09 07:53:00,20.0,10.0,-100.00,ENE,76,1.0,8.0,65,0.00,,,0.00,1.000000,,2013-04-09 13:53:00,
2013-04-09 08:02:00,20.0,10.0,-100.00,ENE,76,1.0,8.0,65,0.00,,,0.00,1.000000,,2013-04-09 14:02:00,
2013-04-09 08:12:00,20.0,10.0,-100.00,ENE,76,1.0,8.0,65,0.00,,,0.00,1.000000,,2013-04-09 14:12:00,
2013-04-09 08:43:00,18.0,10.0,-100.00,SW,225,1.0,3.0,71,0.00,,,0.00,2.000000,,2013-04-09 14:43:00,
2013-04-09 08:52:00,18.0,10.0,-100.00,SW,225,1.0,3.0,71,0.00,,,0.00,2.000000,,2013-04-09 14:52:00,
2013-04-09 09:02:00,18.0,10.0,-100.00,SW,225,1.0,3.0,71,0.00,,,0.00,2.000000,,2013-04-09 15:02:00,
2013-04-09 09:12:00,18.0,10.0,-100.00,SW,225,1.0,3.0,71,0.00,,,0.00,2.000000,,2013-04-09 15:12:00,
2013-04-09 09:34:00,19.0,12.0,-100.00,NNW,341,2.0,3.0,73,0.00,,,0.00,20.000000,,2013-04-09 15:34:00,
2013-04-09 09:43:00,19.0,12.0,-100.00,NNW,341,2.0,3.0,73,0.00,,,0.00,20.000000,,2013-04-09 15:43:00,
2013-04-09 09:53:00,19.0,12.0,-100.00,NNW,341,2.0,3.0,73,0.00,,,0.00,20.000000,,2013-04-09 15:53:00,
2013-04-09 10:03:00,19.0,12.0,-100.00,NNW,341,2.0,3.0,73,0.00,,,0.00,20.000000,,2013-04-09 16:03:00,
2013-04-09 10:34:00,25.0,10.0,-100.00,WNW,297,4.0,7.0,53,0.00,,,-99.99,143.000000,,2013-04-09 16:34:00,
2013-04-09 10:42:00,25.0,10.0,-100.00,WNW,297,4.0,7.0,53,0.00,,,-99.99,143.000000,,2013-04-09 16:42:00,
2013-04-09 10:53:00,25.0,10.0,-100.00,WNW,297,4.0,7.0,53,0.00,,,-99.99,143.000000,,2013-04-09 16:53:00,
2013-04-09 11:02:00,25.0,10.0,-100.00,WNW,297,4.0,7.0,53,0.00,,,-99.99,143.000000,,2013-04-09 17:02:00,
2013-04-09 11:12:00,25.0,10.0,-100.00,WNW,297,4.0,7.0,53,0.00,,,-99.99,143.000000,,2013-04-09 17:12:00,
2013-04-09 11:33:00,28.0,10.0,-100.00,SW,223,4.0,10.0,46,0.00,,,0.00,227.000000,,2013-04-09 17:33:00,
2013-04-09 11:43:00,28.0,10.0,-100.00,SW,223,4.0,10.0,46,0.00,,,0.00,227.000000,,2013-04-09 17:43:00,
2013-04-09 11:53:00,28.0,10.0,-100.00,SW,223,4.0,10.0,46,0.00,,,0.00,227.000000,,2013-04-09 17:53:00,
2013-04-09 12:02:00,28.0,10.0,-100.00,SW,223,4.0,10.0,46,0.00,,,0.00,227.000000,,2013-04-09 18:02:00,
2013-04-09 12:12:00,28.0,10.0,-100.00,SW,223,4.0,10.0,46,0.00,,,0.00,227.000000,,2013-04-09 18:12:00,
2013-04-09 12:33:00,35.0,14.0,-100.00,SSE,159,4.0,12.0,42,0.00,,,0.00,594.000000,,2013-04-09 18:33:00,
2013-04-09 12:43:00,35.0,14.0,-100.00,SSE,159,4.0,12.0,42,0.00,,,0.00,594.000000,,2013-04-09 18:43:00,
2013-04-09 12:53:00,35.0,14.0,-100.00,SSE,159,4.0,12.0,42,0.00,,,0.00,594.000000,,2013-04-09 18:53:00,
2013-04-09 13:02:00,35.0,14.0,-100.00,SSE,159,4.0,12.0,42,0.00,,,0.00,594.000000,,2013-04-09 19:02:00,
2013-04-09 13:11:00,35.0,14.0,-100.00,SSE,159,4.0,12.0,42,0.00,,,0.00,594.000000,,2013-04-09 19:11:00,
2013-04-09 13:52:00,38.0,11.0,-100.00,West,259,4.0,13.0,32,0.00,,,0.00,739.000000,,2013-04-09 19:52:00,
2013-04-09 14:02:00,38.0,11.0,-100.00,West,259,4.0,13.0,32,0.00,,,0.00,739.000000,,2013-04-09 20:02:00,
2013-04-09 14:12:00,38.0,11.0,-100.00,West,259,4.0,13.0,32,0.00,,,0.00,739.000000,,2013-04-09 20:12:00,
2013-04-09 14:44:00,40.0,13.0,-100.00,West,271,5.0,9.0,33,0.00,,,0.00,834.000000,,2013-04-09 20:44:00,
2013-04-09 14:52:00,40.0,13.0,-100.00,West,271,5.0,9.0,33,0.00,,,0.00,834.000000,,2013-04-09 20:52:00,
2013-04-09 15:02:00,40.0,13.0,-100.00,West,271,5.0,9.0,33,0.00,,,0.00,834.000000,,2013-04-09 21:02:00,
2013-04-09 15:12:00,40.0,13.0,-100.00,West,271,5.0,9.0,33,0.00,,,0.00,834.000000,,2013-04-09 21:12:00,
2013-04-09 15:53:00,44.0,13.0,-100.00,WNW,284,6.0,13.0,28,0.00,,,0.00,874.000000,,2013-04-09 21:53:00,
2013-04-09 16:02:00,44.0,13.0,-100.00,WNW,284,6.0,13.0,28,0.00,,,0.00,874.000000,,2013-04-09 22:02:00,
2013-04-09 16:12:00,44.0,13.0,-100.00,WNW,284,6.0,13.0,28,0.00,,,0.00,874.000000,,2013-04-09 22:12:00,
2013-04-09 16:33:00,46.0,13.0,-100.00,WSW,249,6.0,13.0,26,0.00,,,-99.99,844.000000,,2013-04-09 22:33:00,
2013-04-09 16:43:00,46.0,13.0,-100.00,WSW,249,6.0,13.0,26,0.00,,,-99.99,844.000000,,2013-04-09 22:43:00,
2013-04-09 16:53:00,46.0,13.0,-100.00,WSW,249,6.0,13.0,26,0.00,,,-99.99,844.000000,,2013-04-09 22:53:00,
2013-04-09 17:02:00,46.0,13.0,-100.00,WSW,249,6.0,13.0,26,0.00,,,-99.99,844.000000,,2013-04-09 23:02:00,
2013-04-09 17:12:00,46.0,13.0,-100.00,WSW,249,6.0,13.0,26,0.00,,,-99.99,844.000000,,2013-04-09 23:12:00,
2013-04-09 17:33:00,47.0,16.0,-100.00,SSW,207,6.0,12.0,28,0.00,,,0.00,761.000000,,2013-04-09 23:33:00,
2013-04-09 17:42:00,47.0,16.0,-100.00,SSW,207,6.0,12.0,28,0.00,,,0.00,761.000000,,2013-04-09 23:42:00,
2013-04-09 17:53:00,47.0,16.0,-100.00,SSW,207,6.0,12.0,28,0.00,,,0.00,761.000000,,2013-04-09 23:53:00,
2013-04-09 18:02:00,47.0,16.0,-100.00,SSW,207,6.0,12.0,28,0.00,,,0.00,761.000000,,2013-04-10 00:02:00,
2013-04-09 18:11:00,47.0,16.0,-100.00,SSW,207,6.0,12.0,28,0.00,,,0.00,761.000000,,2013-04-10 00:11:00,
2013-04-09 18:43:00,48.0,17.0,-100.00,SW,221,5.0,10.0,29,0.00,,,-99.99,624.000000,,2013-04-10 00:43:00,
2013-04-09 18:52:00,48.0,17.0,-100.00,SW,221,5.0,10.0,29,0.00,,,-99.99,624.000000,,2013-04-10 00:52:00,
2013-04-09 19:02:00,48.0,17.0,-100.00,SW,221,5.0,10.0,29,0.00,,,-99.99,624.000000,,2013-04-10 01:02:00,
2013-04-09 19:11:00,48.0,17.0,-100.00,SW,221,5.0,10.0,29,0.00,,,-99.99,624.000000,,2013-04-10 01:11:00,
2013-04-09 19:33:00,49.0,16.0,-100.00,West,267,4.0,9.0,26,0.00,,,0.00,443.000000,,2013-04-10 01:33:00,
2013-04-09 19:43:00,49.0,16.0,-100.00,West,267,4.0,9.0,26,0.00,,,0.00,443.000000,,2013-04-10 01:43:00,
2013-04-09 19:53:00,49.0,16.0,-100.00,West,267,4.0,9.0,26,0.00,,,0.00,443.000000,,2013-04-10 01:53:00,
2013-04-09 20:02:00,49.0,16.0,-100.00,West,267,4.0,9.0,26,0.00,,,0.00,443.000000,,2013-04-10 02:02:00,
2013-04-09 20:12:00,49.0,16.0,-100.00,West,267,4.0,9.0,26,0.00,,,0.00,443.000000,,2013-04-10 02:12:00,
2013-04-09 20:33:00,42.0,22.0,-100.00,SE,143,2.0,7.0,44,0.00,,,0.00,217.000000,,2013-04-10 02:33:00,
2013-04-09 20:43:00,42.0,22.0,-100.00,SE,143,2.0,7.0,44,0.00,,,0.00,217.000000,,2013-04-10 02:43:00,
2013-04-09 20:52:00,42.0,22.0,-100.00,SE,143,2.0,7.0,44,0.00,,,0.00,217.000000,,2013-04-10 02:52:00,
2013-04-09 21:02:00,42.0,22.0,-100.00,SE,143,2.0,7.0,44,0.00,,,0.00,217.000000,,2013-04-10 03:02:00,
2013-04-09 21:12:00,42.0,22.0,-100.00,SE,143,2.0,7.0,44,0.00,,,0.00,217.000000,,2013-04-10 03:12:00,
2013-04-09 21:43:00,36.0,22.0,-100.00,SSE,151,2.0,6.0,57,0.00,,,0.00,12.000000,,2013-04-10 03:43:00,
2013-04-09 21:53:00,36.0,22.0,-100.00,SSE,151,2.0,6.0,57,0.00,,,0.00,12.000000,,2013-04-10 03:53:00,
2013-04-09 22:03:00,36.0,22.0,-100.00,SSE,151,2.0,6.0,57,0.00,,,0.00,12.000000,,2013-04-10 04:03:00,
2013-04-09 22:13:00,36.0,22.0,-100.00,SSE,151,2.0,6.0,57,0.00,,,0.00,12.000000,,2013-04-10 04:13:00,
2013-04-09 22:43:00,31.0,22.0,-100.00,ESE,102,2.0,4.0,68,0.00,,,0.00,1.000000,,2013-04-10 04:43:00,
2013-04-09 22:53:00,31.0,22.0,-100.00,ESE,102,2.0,4.0,68,0.00,,,0.00,1.000000,,2013-04-10 04:53:00,
2013-04-09 23:02:00,31.0,22.0,-100.00,ESE,102,2.0,4.0,68,0.00,,,0.00,1.000000,,2013-04-10 05:02:00,
2013-04-09 23:12:00,31.0,22.0,-100.00,ESE,102,2.0,4.0,68,0.00,,,0.00,1.000000,,2013-04-10 05:12:00,
2013-04-09 23:33:00,29.0,22.0,-100.00,ESE,121,2.0,4.0,74,0.00,,,0.00,1.000000,,2013-04-10 05:33:00,
2013-04-09 23:43:00,29.0,22.0,-100.00,ESE,121,2.0,4.0,74,0.00,,,0.00,1.000000,,2013-04-10 05:43:00,
2013-04-09 23:53:00,29.0,22.0,-100.00,ESE,121,2.0,4.0,74,0.00,,,0.00,1.000000,,2013-04-10 05:53:00,